Home > Weather > Guatemala > Past weeks

Flag for Guatemala Past Weather in Guatemala, Guatemala — Yesterday and Last 2 Weeks

Now
63 °F

Scattered clouds.


Feels Like: 63 °F
Forecast: 58 / 79 °F
Wind: 12 mph from Northeast

Location: Guatemala Aeropuertola Aurora

Current Time: Jun 30, 2016 at 8:10:38 AM

Latest Report: Jun 30, 2016 at 7:00 AM


Visibility: N/A

Pressure: 30.27 "Hg (25.27 "Hg at 1533m altitude)

Humidity: 94%

Dew Point: 61 °F

Location of GuatemalaLocation

Past Weather in Guatemala — Graph

°F

Guatemala Temperature Yesterday

Maximum temperature yesterday: 77 °F (at 2:00 PM)
Minimum temperature yesterday: 63 °F (at 5:00 AM)
Average temperature yesterday: 68 °F

High & Low Weather Summary for the Past Weeks

 TemperatureHumidityPressure
High81 °F (Jun 15, 1:00 PM)100% (Jun 17, 6:00 AM)30.39 "Hg (Jun 17, 6:00 AM)
Low61 °F (Jun 16, 6:00 AM)44% (Jun 29, 2:00 PM)30.18 "Hg (Jun 17, 3:00 PM)
Average68 °F81%30.29 "Hg
* Reported Jun 15 7:00 AM — Jun 30 7:00 AM, Guatemala, Weather by CustomWeather, © 2016

Note: Actual official high and low records may vary slightly from our data, if they occured in-between our weather recording intervals... More about our weather records

Advertising

Guatemala Weather History for the Previous 24 Hours

Scroll right to see more
 ConditionsComfort  
Time TempWeatherWind HumidityBarometerVisibility
7:00 AM
Thu, Jun 30
63 °FScattered clouds.12 mph94%30.27 "HgN/A
6:00 AM63 °FScattered clouds.14 mph94%30.27 "HgN/A
5:00 AM63 °FPassing clouds.14 mph94%30.27 "HgN/A
4:00 AM63 °FPassing clouds.12 mph94%30.24 "HgN/A
3:00 AM64 °FPassing clouds.9 mph88%30.27 "HgN/A
2:00 AM64 °FPartly cloudy.12 mph88%30.27 "HgN/A
1:00 AM64 °FMostly cloudy.9 mph88%30.30 "HgN/A
12:00 AM64 °FDrizzle. Overcast.14 mph88%30.33 "HgN/A
11:00 PM
Wed, Jun 29
66 °FPartly cloudy.9 mph83%30.30 "HgN/A
10:00 PM66 °FPartly cloudy.9 mph78%30.33 "HgN/A
9:00 PM68 °FPassing clouds.9 mph73%30.30 "HgN/A
8:00 PM68 °FPassing clouds.9 mph73%30.27 "HgN/A
7:00 PM68 °FPassing clouds.12 mph69%30.27 "HgN/A
6:00 PM70 °FPartly sunny.12 mph69%30.24 "HgN/A
5:00 PM72 °FPartly sunny.16 mph65%30.24 "HgN/A
4:00 PM73 °FBroken clouds.14 mph50%30.24 "HgN/A
3:00 PM75 °FBroken clouds.16 mph47%30.24 "HgN/A
2:00 PM77 °FPartly sunny.16 mph44%30.24 "HgN/A
1:00 PM75 °FPartly sunny.21 mph47%30.24 "HgN/A
12:00 PM73 °FScattered clouds.18 mph50%30.27 "HgN/A
11:00 AM73 °FScattered clouds.21 mph57%30.27 "HgN/A
10:00 AM70 °FScattered clouds.18 mph69%30.27 "HgN/A
9:00 AM68 °FPartly sunny.16 mph73%30.30 "HgN/A
8:00 AM64 °FScattered clouds.16 mph88%30.30 "HgN/A
Weather by CustomWeather, © 2016

See weather overviewHow to use our weather pages